SCP
0 0 0 0 0 0 0 0 0 0 0 0 0 -0 0 0 0 0 0 0 1 1 0 0 0 0 0 0 0 0 0 0 0 0 0 0 0 0 0 0 0 0 0
0 0 0 0 0 0 0 0 0 0 0 0 0 -0 0 0 0 0 0 0 1 1 1 0 0 0 1 0 1 0 0 0 0 0 0 0 0 0 0 0 0 0 0
0 0 0 0 0 0 0 0 0 0 0 0 0 0 0 0 0 0 0 0 1 1 1 0 0 0 0 0 0 0 0 1 0 0 0 0 0 0 0 0 0 0 0
-0 0 0 0 0 0 0 0 -0 0 0 0 0 0 0 0 0 0 0 0 0 0 1 1 1 1 0 0 1 1 1 1 1 1 1 1 1 0 0 0 0 0 0
0 0 0 0 -0 0 -0 0 0 0 0 0 0 0 0 0 0 0 1 0 0 0 0 1 1 1 1 1 1 1 1 1 1 1 1 1 1 1 1 1 1 0 0
-0 -0 -0 -0 0 -0 -0 0 0 0 0 0 0 0 0 0 0 0 0 0 0 0 0 0 1 1 1 1 1 1 1 1 1 1 1 1 1 2 1 1 1 1 0
0 0 0 -0 0 0 0 -0 0 0 0 0 0 0 0 0 0 0 0 0 0 0 0 0 0 0 0 0 0 0 1 1 1 1 1 1 1 1 1 1 1 1 1
0 -0 -0 -0 -0 -0 0 0 0 0 0 0 0 0 0 0 0 0 0 0 0 0 0 0 1 0 0 0 0 -0 0 0 0 1 1 1 1 1 1 1 1 1 1
0 0 0 0 -0 0 0 0 0 0 0 0 0 0 0 0 0 0 0 0 0 0 0 0 0 0 0 0 0 0 -0 0 0 0 0 1 1 1 1 1 1 1 1
0 0 0 -0 0 0 0 0 0 0 0 0 0 0 0 0 0 0 0 0 0 0 0 0 0 0 0 0 -0 -1 -1 0 0 0 0 0 1 1 1 1 1 1 1
-0 -0 -0 0 0 0 0 0 0 0 0 0 0 0 0 0 0 0 0 0 0 0 0 0 0 0 0 0 0 -0 -0 0 0 0 0 0 0 1 1 1 1 1 1
0 -0 0 -0 -0 0 0 0 0 0 0 0 0 0 0 0 0 0 0 0 -0 -0 0 0 0 0 0 -0 -0 -0 -0 -0 0 0 0 0 0 0 1 1 1 1 1
-0 0 0 -0 -0 -0 -0 0 0 0 0 0 0 0 0 0 0 0 0 0 0 0 0 0 -0 0 0 -0 -0 -0 -0 -0 0 0 0 0 0 0 0 0 0 0 0
-0 0 -0 -0 -0 -0 0 0 -0 0 0 0 0 0 0 0 0 0 0 0 0 0 0 0 -0 -0 0 -0 -0 0 0 0 0 0 0 0 0 0 0 0 0 0 0
-0 -0 -0 -0 0 0 0 0 -0 0 -0 0 0 0 0 0 0 0 0 0 0 0 0 0 0 0 0 0 -0 0 0 0 0 0 0 0 0 0 0 0 0 0 0
0 0 0 -0 0 -0 -0 0 -0 0 0 0 -0 0 0 0 0 0 1 0 0 0 0 0 0 0 0 0 -0 0 -0 -0 0 0 0 0 0 0 0 0 0 0 0
0 0 0 -0 -0 -0 0 0 0 -0 0 0 0 0 0 0 0 0 0 0 0 0 0 0 0 -0 -0 -0 -0 0 0 0 0 0 0 0 0 0 0 0 0 0 0
0 -0 -0 0 -0 -0 -0 0 0 0 0 0 0 -0 0 0 0 0 0 0 0 0 0 -0 -0 -0 -0 -0 -0 -0 0 0 0 0 0 0 0 0 0 0 0 0 0
0 0 0 0 0 -0 -0 0 0 0 0 0 0 0 -0 -0 -0 -0 -0 0 0 0 0 -0 -0 -0 -0 0 0 -0 0 0 0 0 0 0 0 0 0 0 0 0 0
0 0 0 0 0 -0 -0 0 0 -0 -0 0 0 0 0 0 0 0 0 -0 -0 -0 -0 0 -0 0 0 0 0 0 0 0 0 0 0 0 0 0 0 0 0 0 0
1 0 0 0 0 0 0 0 0 0 -0 -0 -0 0 -0 -0 0 0 0 0 0 0 0 0 0 0 0 0 0 0 0 0 0 0 0 0 0 0 0 0 0 0 0
0 0 0 0 0 0 -0 -0 -0 0 0 -0 -0 -0 -0 -0 -0 0 0 0 0 1 0 0 0 0 0 0 0 -0 -0 -0 -0 0 0 -0 0 0 0 0 0 0 0
0 0 0 1 0 0 0 -0 -0 0 0 0 0 -0 -0 -0 -0 -0 -0 0 0 0 0 0 0 0 -0 -0 -0 -0 -0 0 0 0 -0 -0 -0 -0 0 0 -0 -0 -0
0 1 0 0 0 0 0 -0 -0 -0 0 0 1 1 0 0 0 -0 -0 0 -0 -0 -0 0 0 0 0 0 0 0 -0 -0 0 0 0 -0 0 0 -0 0 0 0 0
0 0 1 1 0 0 0 0 0 0 0 0 0 0 1 1 0 -0 0 0 0 0 0 0 0 0 0 0 0 0 0 0 0 0 0 0 0 0 0 0 0 0 0
0 0 0 0 1 0 0 0 0 0 0 0 0 0 0 1 1 1 1 1 -0 0 1 1 0 0 0 0 0 0 0 0 0 0 0 0 0 0 0 0 0 0 0
Wind_Speed_500mb
17 21 21 13 17 25 30 35 23 23 24 20 21 33 18 18 19 27 36 32 26 22 18 16 16 14 13 12 14 16 16 17 16 16 15 16 18 17 16 16 15 14 13
15 23 22 21 12 23 27 29 29 21 16 14 17 21 15 10 17 18 23 29 31 26 21 19 17 16 15 16 18 18 19 19 19 19 19 20 21 20 19 18 16 15 14
18 22 22 20 21 20 28 26 24 24 18 24 23 16 15 8 1 14 19 18 23 28 27 26 24 21 21 22 22 23 23 21 23 22 22 23 22 21 20 19 18 16 15
25 22 17 18 17 18 13 21 29 27 18 21 17 15 17 20 9 8 14 16 17 23 29 34 28 25 25 26 26 25 23 25 25 24 24 24 23 24 23 22 20 17 15
31 22 27 21 16 19 23 18 22 15 13 19 14 9 6 6 10 8 9 11 17 17 24 26 30 27 28 28 27 26 28 26 25 24 24 25 25 25 24 22 20 18 15
26 24 19 24 20 23 21 19 15 13 12 12 11 10 12 7 7 5 4 12 15 20 24 14 19 24 29 30 28 28 27 26 27 26 26 27 28 28 27 25 21 17 15
30 22 26 22 19 18 14 21 20 9 4 10 6 8 10 9 4 6 13 11 8 14 17 12 10 13 18 18 26 29 31 30 27 27 27 28 30 30 28 25 22 20 18
31 23 20 19 5 28 25 24 19 15 13 10 8 3 5 10 12 4 10 8 7 3 10 15 18 16 24 21 23 34 34 31 28 25 27 32 34 30 29 27 22 17 16
30 24 23 18 19 23 24 22 17 10 18 11 12 9 8 10 17 11 12 11 14 7 3 10 22 23 21 17 18 30 29 34 32 27 32 35 36 34 33 29 24 19 14
24 23 28 18 20 16 17 23 15 12 13 6 4 13 12 14 10 15 15 13 16 12 7 6 6 14 18 18 21 33 26 35 34 34 35 38 38 37 35 30 25 22 16
16 10 26 16 21 20 20 22 15 19 12 5 8 3 6 12 10 4 16 17 16 9 6 3 3 5 15 13 20 27 32 30 31 39 41 46 40 37 37 33 27 21 17
18 19 20 21 25 23 32 24 16 19 14 6 6 9 6 13 12 22 16 20 16 15 11 5 1 3 9 14 17 27 32 29 27 32 41 51 45 39 38 35 29 25 21
19 22 23 28 21 28 27 30 25 28 24 15 10 9 5 13 9 19 26 23 19 15 16 7 5 4 6 13 17 28 33 32 23 28 35 45 47 47 39 37 33 28 23
25 24 22 21 20 26 30 30 25 30 27 22 17 14 9 6 2 10 16 19 11 18 20 14 7 6 9 13 25 33 35 32 21 25 29 38 42 46 45 39 35 33 26
38 33 22 22 22 24 19 25 26 30 25 28 27 24 19 12 5 3 8 8 13 10 9 15 12 19 20 25 26 39 33 32 20 22 25 30 36 39 43 43 37 35 32
20 34 27 25 28 20 15 17 20 23 33 26 29 27 28 22 10 8 6 4 3 9 11 9 11 12 17 19 30 34 33 27 20 19 23 28 31 37 39 39 42 34 34
24 16 31 23 29 30 28 19 22 25 26 33 17 25 28 31 21 17 16 15 12 12 22 22 21 19 23 31 36 33 34 23 19 23 26 29 32 33 37 38 39 36 33
28 23 17 30 23 27 23 23 21 29 22 29 25 32 30 28 35 28 24 24 22 15 19 29 33 36 38 37 33 30 27 24 24 25 27 29 37 32 36 34 36 32 36
41 38 34 25 27 29 27 26 29 27 28 25 19 30 40 38 37 37 39 37 36 32 30 30 38 37 34 27 29 28 32 35 27 28 22 31 32 28 35 31 40 33 32
39 34 32 37 37 31 33 40 35 29 35 34 28 23 26 29 27 23 31 43 47 46 45 43 40 41 38 35 39 25 18 20 29 31 39 41 40 32 29 35 38 34 29
37 39 36 39 39 40 39 42 37 32 30 36 37 36 36 31 29 27 29 26 30 37 42 44 43 35 34 30 29 28 32 38 41 47 46 46 45 44 47 43 28 33 29
44 41 39 39 44 45 41 39 31 29 25 27 34 37 38 36 35 35 39 42 38 38 41 39 42 45 43 44 46 49 50 50 56 50 50 43 18 19 23 18 28 28 28
46 48 47 45 45 46 48 41 38 45 47 44 41 36 38 39 42 42 41 38 41 39 38 40 48 51 51 46 45 44 42 43 47 45 45 49 31 26 25 33 34 34 33
47 45 47 50 52 51 50 52 53 57 54 53 54 53 52 49 44 39 42 45 46 46 49 48 48 47 45 36 32 36 41 47 51 50 47 62 50 43 29 35 29 23 25
41 45 46 50 55 56 53 57 57 59 64 68 66 65 66 67 66 61 54 57 58 61 59 60 60 57 53 48 43 45 50 53 62 65 58 53 39 40 38 39 32 33 34
36 43 45 53 53 56 56 57 56 62 65 64 68 74 77 77 72 71 73 76 78 74 72 72 72 73 70 65 57 55 56 61 65 71 45 42 36 40 41 45 43 33 35
Wind_Direction_500mb
124 130 124 139 112 111 114 113 104 94 118 114 102 92 133 69 53 50 60 59 56 55 56 60 61 58 54 59 62 61 59 56 51 47 45 39 39 36 33 30 27 29 31
140 118 136 124 99 104 114 118 118 116 109 117 104 120 64 68 48 47 49 50 50 53 57 59 56 56 60 63 64 64 62 58 54 49 44 40 35 31 26 22 19 18 20
151 144 132 122 119 113 121 126 136 129 107 116 117 118 123 129 66 54 39 43 38 42 59 67 65 67 69 69 69 67 64 60 56 49 44 38 32 26 20 18 13 10 7
174 151 146 155 144 143 131 127 148 135 95 134 126 116 99 116 142 63 68 46 44 55 65 67 69 71 74 73 69 65 62 57 52 47 41 35 28 24 18 15 11 4 359
146 150 147 153 163 165 123 133 122 151 139 149 147 142 155 124 103 103 71 47 35 52 50 67 61 71 69 66 64 63 57 50 41 33 22 15 8 1 358 358 0 2 358
176 146 145 173 173 138 145 142 136 133 173 148 174 174 212 241 233 137 113 41 49 62 51 76 69 70 67 61 56 50 40 30 22 14 7 3 356 349 341 331 327 331 340
183 166 161 164 165 156 161 142 128 151 169 95 46 249 211 183 151 251 210 68 46 33 41 43 61 77 76 56 44 36 23 15 10 9 8 4 359 354 347 335 321 306 305
179 172 173 175 154 144 152 164 147 144 117 80 89 111 163 167 178 179 128 143 11 338 42 15 56 80 72 67 45 27 17 16 13 12 8 2 0 3 1 355 345 324 308
170 172 169 157 160 161 166 178 176 162 130 119 78 75 135 121 149 164 168 196 195 184 294 89 70 48 37 35 32 17 15 18 19 18 10 6 5 8 10 10 9 5 349
181 173 178 180 187 168 159 150 151 170 156 145 122 91 108 111 156 161 179 164 176 185 204 218 44 50 33 21 30 19 17 20 24 22 18 13 10 10 12 11 13 11 4
180 189 189 205 199 196 194 163 168 185 184 99 43 220 96 78 109 309 198 176 185 165 131 321 8 22 13 360 15 358 9 22 29 26 22 17 12 13 13 9 12 11 7
168 183 200 226 217 182 185 189 196 201 194 161 130 99 104 90 69 45 205 175 169 144 149 87 87 19 348 345 346 345 355 5 18 15 18 18 16 14 13 11 10 10 10
176 193 204 218 217 207 194 205 213 218 208 209 207 153 120 116 53 50 49 196 184 180 182 188 81 217 293 351 320 325 337 350 6 13 14 14 14 16 15 13 11 11 12
205 202 215 223 222 197 199 205 212 210 214 213 228 209 199 182 169 52 41 46 166 188 197 210 215 245 220 291 305 323 329 343 353 10 11 10 10 16 19 14 13 12 14
215 218 234 222 215 199 211 226 212 208 208 221 221 223 221 216 228 124 72 37 26 35 330 228 229 232 257 294 313 329 335 341 346 359 5 1 4 10 14 15 16 13 12
217 214 222 198 185 195 213 212 212 208 211 220 230 228 226 227 244 204 187 158 31 329 318 353 11 216 245 283 315 328 347 348 325 358 357 348 359 2 4 4 11 10 11
214 218 213 208 183 190 205 235 220 211 216 218 222 231 236 234 234 219 237 250 253 284 290 288 292 295 292 304 308 320 341 350 4 355 344 334 345 346 356 355 1 7 8
226 229 222 218 205 204 203 232 233 226 227 231 228 225 236 240 238 241 237 234 250 255 284 289 286 294 295 295 294 310 332 346 339 336 351 340 337 327 342 347 350 358 11
231 236 238 227 222 216 223 228 239 223 227 221 221 226 236 244 254 257 246 243 246 254 263 283 289 290 295 318 309 301 298 300 308 317 324 323 329 327 326 343 341 335 351
222 226 228 235 242 246 241 240 244 235 232 237 231 227 243 242 253 265 254 251 255 257 259 267 274 282 291 297 315 325 318 284 285 294 309 306 307 311 319 329 325 319 326
231 230 225 225 230 237 240 236 244 245 240 236 239 237 235 241 255 269 278 275 270 266 259 263 269 272 271 293 299 309 307 300 297 301 303 300 298 296 300 303 310 319 307
239 238 236 235 233 235 239 241 240 247 256 249 244 248 252 247 242 254 264 274 282 281 271 270 268 269 272 278 283 294 296 300 304 303 309 312 308 314 319 310 312 303 323
236 237 242 242 243 241 241 241 237 255 258 262 262 257 252 252 251 252 251 266 275 278 279 280 277 276 280 285 292 292 295 297 297 303 305 302 301 286 305 308 295 292 315
233 232 238 244 246 247 250 251 241 240 246 251 258 264 266 267 263 257 253 260 263 265 265 268 274 283 287 289 288 296 295 293 297 303 307 301 304 297 289 308 304 303 319
243 237 239 244 243 247 251 251 254 251 246 246 248 251 255 260 265 266 264 265 270 272 274 276 278 281 282 281 282 284 281 288 295 304 308 303 321 303 288 289 308 309 311
265 254 247 242 245 252 252 252 256 260 260 259 258 255 254 257 260 262 264 266 269 271 272 274 275 278 281 280 278 274 278 280 287 295 303 300 314 310 309 293 290 299 300
Wind_Speed_850mb
17 21 21 13 17 25 30 35 23 23 24 20 21 33 18 18 19 27 36 32 26 22 18 16 16 14 13 12 14 16 16 17 16 16 15 16 18 17 16 16 15 14 13
15 23 22 21 12 23 27 29 29 21 16 14 17 21 15 10 17 18 23 29 31 26 21 19 17 16 15 16 18 18 19 19 19 19 19 20 21 20 19 18 16 15 14
18 22 22 20 21 20 28 26 24 24 18 24 23 16 15 8 1 14 19 18 23 28 27 26 24 21 21 22 22 23 23 21 23 22 22 23 22 21 20 19 18 16 15
25 22 17 18 17 18 13 21 29 27 18 21 17 15 17 20 9 8 14 16 17 23 29 34 28 25 25 26 26 25 23 25 25 24 24 24 23 24 23 22 20 17 15
31 22 27 21 16 19 23 18 22 15 13 19 14 9 6 6 10 8 9 11 17 17 24 26 30 27 28 28 27 26 28 26 25 24 24 25 25 25 24 22 20 18 15
26 24 19 24 20 23 21 19 15 13 12 12 11 10 12 7 7 5 4 12 15 20 24 14 19 24 29 30 28 28 27 26 27 26 26 27 28 28 27 25 21 17 15
30 22 26 22 19 18 14 21 20 9 4 10 6 8 10 9 4 6 13 11 8 14 17 12 10 13 18 18 26 29 31 30 27 27 27 28 30 30 28 25 22 20 18
31 23 20 19 5 28 25 24 19 15 13 10 8 3 5 10 12 4 10 8 7 3 10 15 18 16 24 21 23 34 34 31 28 25 27 32 34 30 29 27 22 17 16
30 24 23 18 19 23 24 22 17 10 18 11 12 9 8 10 17 11 12 11 14 7 3 10 22 23 21 17 18 30 29 34 32 27 32 35 36 34 33 29 24 19 14
24 23 28 18 20 16 17 23 15 12 13 6 4 13 12 14 10 15 15 13 16 12 7 6 6 14 18 18 21 33 26 35 34 34 35 38 38 37 35 30 25 22 16
16 10 26 16 21 20 20 22 15 19 12 5 8 3 6 12 10 4 16 17 16 9 6 3 3 5 15 13 20 27 32 30 31 39 41 46 40 37 37 33 27 21 17
18 19 20 21 25 23 32 24 16 19 14 6 6 9 6 13 12 22 16 20 16 15 11 5 1 3 9 14 17 27 32 29 27 32 41 51 45 39 38 35 29 25 21
19 22 23 28 21 28 27 30 25 28 24 15 10 9 5 13 9 19 26 23 19 15 16 7 5 4 6 13 17 28 33 32 23 28 35 45 47 47 39 37 33 28 23
25 24 22 21 20 26 30 30 25 30 27 22 17 14 9 6 2 10 16 19 11 18 20 14 7 6 9 13 25 33 35 32 21 25 29 38 42 46 45 39 35 33 26
38 33 22 22 22 24 19 25 26 30 25 28 27 24 19 12 5 3 8 8 13 10 9 15 12 19 20 25 26 39 33 32 20 22 25 30 36 39 43 43 37 35 32
20 34 27 25 28 20 15 17 20 23 33 26 29 27 28 22 10 8 6 4 3 9 11 9 11 12 17 19 30 34 33 27 20 19 23 28 31 37 39 39 42 34 34
24 16 31 23 29 30 28 19 22 25 26 33 17 25 28 31 21 17 16 15 12 12 22 22 21 19 23 31 36 33 34 23 19 23 26 29 32 33 37 38 39 36 33
28 23 17 30 23 27 23 23 21 29 22 29 25 32 30 28 35 28 24 24 22 15 19 29 33 36 38 37 33 30 27 24 24 25 27 29 37 32 36 34 36 32 36
41 38 34 25 27 29 27 26 29 27 28 25 19 30 40 38 37 37 39 37 36 32 30 30 38 37 34 27 29 28 32 35 27 28 22 31 32 28 35 31 40 33 32
39 34 32 37 37 31 33 40 35 29 35 34 28 23 26 29 27 23 31 43 47 46 45 43 40 41 38 35 39 25 18 20 29 31 39 41 40 32 29 35 38 34 29
37 39 36 39 39 40 39 42 37 32 30 36 37 36 36 31 29 27 29 26 30 37 42 44 43 35 34 30 29 28 32 38 41 47 46 46 45 44 47 43 28 33 29
44 41 39 39 44 45 41 39 31 29 25 27 34 37 38 36 35 35 39 42 38 38 41 39 42 45 43 44 46 49 50 50 56 50 50 43 18 19 23 18 28 28 28
46 48 47 45 45 46 48 41 38 45 47 44 41 36 38 39 42 42 41 38 41 39 38 40 48 51 51 46 45 44 42 43 47 45 45 49 31 26 25 33 34 34 33
47 45 47 50 52 51 50 52 53 57 54 53 54 53 52 49 44 39 42 45 46 46 49 48 48 47 45 36 32 36 41 47 51 50 47 62 50 43 29 35 29 23 25
41 45 46 50 55 56 53 57 57 59 64 68 66 65 66 67 66 61 54 57 58 61 59 60 60 57 53 48 43 45 50 53 62 65 58 53 39 40 38 39 32 33 34
36 43 45 53 53 56 56 57 56 62 65 64 68 74 77 77 72 71 73 76 78 74 72 72 72 73 70 65 57 55 56 61 65 71 45 42 36 40 41 45 43 33 35
Wind_Direction_850mb
124 130 124 139 112 111 114 113 104 94 118 114 102 92 133 69 53 50 60 59 56 55 56 60 61 58 54 59 62 61 59 56 51 47 45 39 39 36 33 30 27 29 31
140 118 136 124 99 104 114 118 118 116 109 117 104 120 64 68 48 47 49 50 50 53 57 59 56 56 60 63 64 64 62 58 54 49 44 40 35 31 26 22 19 18 20
151 144 132 122 119 113 121 126 136 129 107 116 117 118 123 129 66 54 39 43 38 42 59 67 65 67 69 69 69 67 64 60 56 49 44 38 32 26 20 18 13 10 7
174 151 146 155 144 143 131 127 148 135 95 134 126 116 99 116 142 63 68 46 44 55 65 67 69 71 74 73 69 65 62 57 52 47 41 35 28 24 18 15 11 4 359
146 150 147 153 163 165 123 133 122 151 139 149 147 142 155 124 103 103 71 47 35 52 50 67 61 71 69 66 64 63 57 50 41 33 22 15 8 1 358 358 0 2 358
176 146 145 173 173 138 145 142 136 133 173 148 174 174 212 241 233 137 113 41 49 62 51 76 69 70 67 61 56 50 40 30 22 14 7 3 356 349 341 331 327 331 340
183 166 161 164 165 156 161 142 128 151 169 95 46 249 211 183 151 251 210 68 46 33 41 43 61 77 76 56 44 36 23 15 10 9 8 4 359 354 347 335 321 306 305
179 172 173 175 154 144 152 164 147 144 117 80 89 111 163 167 178 179 128 143 11 338 42 15 56 80 72 67 45 27 17 16 13 12 8 2 0 3 1 355 345 324 308
170 172 169 157 160 161 166 178 176 162 130 119 78 75 135 121 149 164 168 196 195 184 294 89 70 48 37 35 32 17 15 18 19 18 10 6 5 8 10 10 9 5 349
181 173 178 180 187 168 159 150 151 170 156 145 122 91 108 111 156 161 179 164 176 185 204 218 44 50 33 21 30 19 17 20 24 22 18 13 10 10 12 11 13 11 4
180 189 189 205 199 196 194 163 168 185 184 99 43 220 96 78 109 309 198 176 185 165 131 321 8 22 13 360 15 358 9 22 29 26 22 17 12 13 13 9 12 11 7
168 183 200 226 217 182 185 189 196 201 194 161 130 99 104 90 69 45 205 175 169 144 149 87 87 19 348 345 346 345 355 5 18 15 18 18 16 14 13 11 10 10 10
176 193 204 218 217 207 194 205 213 218 208 209 207 153 120 116 53 50 49 196 184 180 182 188 81 217 293 351 320 325 337 350 6 13 14 14 14 16 15 13 11 11 12
205 202 215 223 222 197 199 205 212 210 214 213 228 209 199 182 169 52 41 46 166 188 197 210 215 245 220 291 305 323 329 343 353 10 11 10 10 16 19 14 13 12 14
215 218 234 222 215 199 211 226 212 208 208 221 221 223 221 216 228 124 72 37 26 35 330 228 229 232 257 294 313 329 335 341 346 359 5 1 4 10 14 15 16 13 12
217 214 222 198 185 195 213 212 212 208 211 220 230 228 226 227 244 204 187 158 31 329 318 353 11 216 245 283 315 328 347 348 325 358 357 348 359 2 4 4 11 10 11
214 218 213 208 183 190 205 235 220 211 216 218 222 231 236 234 234 219 237 250 253 284 290 288 292 295 292 304 308 320 341 350 4 355 344 334 345 346 356 355 1 7 8
226 229 222 218 205 204 203 232 233 226 227 231 228 225 236 240 238 241 237 234 250 255 284 289 286 294 295 295 294 310 332 346 339 336 351 340 337 327 342 347 350 358 11
231 236 238 227 222 216 223 228 239 223 227 221 221 226 236 244 254 257 246 243 246 254 263 283 289 290 295 318 309 301 298 300 308 317 324 323 329 327 326 343 341 335 351
222 226 228 235 242 246 241 240 244 235 232 237 231 227 243 242 253 265 254 251 255 257 259 267 274 282 291 297 315 325 318 284 285 294 309 306 307 311 319 329 325 319 326
231 230 225 225 230 237 240 236 244 245 240 236 239 237 235 241 255 269 278 275 270 266 259 263 269 272 271 293 299 309 307 300 297 301 303 300 298 296 300 303 310 319 307
239 238 236 235 233 235 239 241 240 247 256 249 244 248 252 247 242 254 264 274 282 281 271 270 268 269 272 278 283 294 296 300 304 303 309 312 308 314 319 310 312 303 323
236 237 242 242 243 241 241 241 237 255 258 262 262 257 252 252 251 252 251 266 275 278 279 280 277 276 280 285 292 292 295 297 297 303 305 302 301 286 305 308 295 292 315
233 232 238 244 246 247 250 251 241 240 246 251 258 264 266 267 263 257 253 260 263 265 265 268 274 283 287 289 288 296 295 293 297 303 307 301 304 297 289 308 304 303 319
243 237 239 244 243 247 251 251 254 251 246 246 248 251 255 260 265 266 264 265 270 272 274 276 278 281 282 281 282 284 281 288 295 304 308 303 321 303 288 289 308 309 311
265 254 247 242 245 252 252 252 256 260 260 259 258 255 254 257 260 262 264 266 269 271 272 274 275 278 281 280 278 274 278 280 287 295 303 300 314 310 309 293 290 299 300